Location: Newark
(7.1028°S, 35.3258°W)
Time: 01:15:17
(UTC+00:00)

Vanguard 3 - Pass Details

Date: 26 February 2020
Orbit: 508 x 3263 km, 33.4° (Epoch: 06 April)

Event Time Altitude Azimuth Distance (km) Brightness Sun altitude
Rises 22:32:11 0° 266° (W) 7,051 13.2 -27.7°
Reaches altitude 10° 22:37:50 10° 257° (WSW) 6,168 12.6 -29.0°
Maximum altitude 22:54:27 32° 201° (SSW) 4,393 11.0 -33.0°
Drops below altitude 10° 23:08:15 10° 143° (SE) 5,096 11.0 -36.3°
Enters shadow 23:09:46 - 138° (SE) 5,310 11.1 -36.7°
